Terug naar catalogus

MERIDIAN 9

ActiefMilitairHEO
NORAD 45254·PAYLOAD·🇷🇺 Russia

Gelanceerd Feb 20, 2020 vanaf Plesetsk Cosmodrome

Loading…

Volgende Passages (komende 24 uur)

TLE

VersSource: Space-Track

Epoch: Sep 14, 2026, 04:43 UTC

1 45254U 20015A   26257.19717774 -.00000056  00000-0  00000-0 0  9995
2 45254  65.5371 309.6341 6831250 276.4042  16.0703  2.00616277 48072

Volg MERIDIAN 9 in realtime met AllMySat

Download on the App Store